Torna al catalogo

TIROS 4

AttivoMeteoLEO
NORAD 226·PAYLOAD·🇺🇸 United States

Lanciato Feb 8, 1962 da Cape Canaveral Space Force Station

Loading…

Prossimi Passaggi (prossime 24 ore)

TLE

AggiornatoSource: Space-Track

Epoca: Sep 9, 2026, 06:22 UTC

1   226U 62002A   26252.26544804 -.00000012  00000-0  42633-4 0  9996
2   226  48.2977 350.1472 0076552 238.9922 120.3443 14.47214239380624

Traccia TIROS 4 in tempo reale con AllMySat

Download on the App Store